Content
SEND FEEDBACK

Daily
Averages
Monthly
Summary
United States of America

LAMONI, IOWA


Home > North America > United States > Iowa
Elevation: 1140 feet     Latitude: 40 37N     Longitude: 093 57W

WEATHER
 
SELECT A DAY
Number of Records: 171,176;   Date Range: 1/1/95 - 7/20/14
 
SHARE

PRINT THIS DATA

[ ← Previous Day ]
WEATHER ALMANAC - FEBRUARY 1, 2013
[ Next Day → ]
[ °C ]   °F
Weather ElementAverageHighLow
Temperature9.4 °F24.1 °F (11:53 pm)-5.1 °F (5:53 am)
Dewpoint0.4 °F14 °F (11:53 pm)-11 °F (4:53 am)
Humidity67.3 %80 % (5:53 am)59 % (2:53 pm)
Barometer30.34 in30.48 in (1:53 am)30.13 in (11:53 pm)
Wind Speed10.9 mph18.4 mph (9:53 pm)
Wind Gust24.2 mph (10:53 pm)
Weather ElementAverage
Visibility10 mi
Wind DirectionSW (223.9 °)

Weather ElementTotal
Precipitation---
Heating Degree Days55.5 (Base 65)
Averaged from 23 records on February 1, 2013
WEATHER CONDITIONS BREAKOUT
WIND DIRECTION BREAKOUT
WEATHER BY HOUR - FEBRUARY 1, 2013
[ °C ]   °F
Local TimeTemperatureDewpointHumidityBarometerVisibilityWind DirectionWind SpeedGust SpeedPrecipitationEventsConditions
1:53 AM-2.0 °F-9.0 °F72 %30.48 in10.0 miWSW (250°)8.1 mphClear
2:53 AM-2.9 °F-9.9 °F72 %30.46 in10.0 miWNW (290°)9.2 mphClear
3:53 AM-2.9 °F-9.9 °F72 %30.47 in10.0 miWest (260°)8.1 mphClear
4:53 AM-4.0 °F-11.0 °F72 %30.46 in10.0 miWNW (300°)6.9 mphClear
5:53 AM-5.1 °F-9.9 °F80 %30.45 in10.0 miWest (270°)4.6 mphClear
6:53 AM-5.1 °F-11.0 °F76 %30.46 in10.0 miWest (260°)4.6 mphClear
7:53 AM-2.0 °F-9.0 °F72 %30.45 in10.0 miNNW (330°)5.8 mphMostly Cloudy
8:53 AM0.0 °F-9.9 °F63 %30.48 in10.0 miWest (280°)5.8 mphOvercast
9:53 AM1.9 °F-7.1 °F66 %30.46 in10.0 miSSW (200°)5.8 mphScattered Clouds
10:53 AM3.9 °F-5.1 °F66 %30.46 in10.0 miSouth (190°)9.2 mphOvercast
11:53 AM7.0 °F-2.9 °F64 %30.41 in10.0 miSouth (170°)8.1 mphOvercast
12:53 PM10.9 °F0.0 °F61 %30.38 in10.0 miSouth (180°)9.2 mphPartly Cloudy
1:53 PM12.9 °F1.9 °F62 %30.32 in10.0 miSouth (180°)12.7 mphOvercast
2:53 PM16.0 °F3.9 °F59 %30.28 in10.0 miSouth (180°)13.8 mphOvercast
3:53 PM17.1 °F6.1 °F62 %30.26 in10.0 miSouth (190°)16.1 mphOvercast
4:53 PM18.0 °F8.1 °F65 %30.23 in10.0 miSouth (190°)13.8 mphOvercast
5:53 PM19.9 °F9.0 °F62 %30.21 in10.0 miSSW (200°)13.8 mphOvercast
6:53 PM19.9 °F10.9 °F68 %30.19 in10.0 miSSW (200°)16.1 mphOvercast
7:53 PM21.0 °F12.0 °F68 %30.20 in10.0 miSSW (210°)12.7 mphOvercast
8:53 PM21.9 °F12.9 °F68 %30.18 in10.0 miSSW (200°)16.1 mphOvercast
9:53 PM21.9 °F12.9 °F68 %30.16 in10.0 miSSW (200°)18.4 mphOvercast
10:53 PM23.0 °F12.9 °F65 %30.15 in10.0 miSSW (210°)17.3 mph24.2 mphOvercast
11:53 PM24.1 °F14.0 °F65 %30.13 in10.0 miSSW (210°)13.8 mphOvercast
Hourly data recorded from KLWD, located miles away from Lamoni, Iowa







STORIES FROM OUR PARTNERS